Regional Weather Roundup
Issued by NWS

Home | Current Version | Previous Version | Graphics & Text | Print | Product List | Glossary On
Versions: 1 2 3 4 5 6 7 8 9 10 11 12 13 14 15 16 17 18 19 20 21 22 23 24 25 26 27 28 29 30 31 32 33 34 35 36 37 38 39 40 41 42 43 44 45 46 47 48 49 50
000
ASUS43 KTOP 300459
RWRKS

WEATHER ROUNDUP FOR KANSAS
NATIONAL WEATHER SERVICE GOODLAND KS
1200 AM CDT THU OCT 30 2014

NOTE:  "FAIR" INDICATES FEW OR NO CLOUDS BELOW 12,000 FEET WITH NO
SIGNIFICANT WEATHER AND/OR OBSTRUCTIONS TO VISIBILITY.

KSZ001>006-013>018-027>032-041>047-300600-
NORTHWEST KANSAS

CITY           SKY/WX    TMP DP  RH WIND       PRES   REMARKS
GOODLAND       CLEAR     48  24  39 W9        30.12R
HAYS           CLEAR     52  36  54 SW12      30.01F
HILL CITY      PTCLDY    52  33  48 SW8       30.01R
RUSSELL        CLEAR     54  34  46 S13       30.00S
$$

KSZ061>065-074>080-084>089-300600-
SOUTHWEST KANSAS

CITY           SKY/WX    TMP DP  RH WIND       PRES   REMARKS
DODGE CITY     CLEAR     52  35  52 S9        30.08R
ELKHART          N/A     56  37  49 SW9         N/A
GARDEN CITY    CLEAR     47  39  74 S8        30.07R
GREAT BEND     PTCLDY    54  32  43 S10       30.04S
LIBERAL        CLEAR     48  36  61 S9        30.11R
$$

KSZ066>073-081>083-090>101-300600-
SOUTHEAST KANSAS

CITY           SKY/WX    TMP DP  RH WIND       PRES   REMARKS
CHANUTE        CLEAR     45  39  79 S9        30.11S
COFFEYVILLE    CLEAR     49  40  71 S5        30.12F
HUTCHINSON     CLEAR     51  33  50 S7        30.06S
NEWTON         CLEAR     52  30  43 S8        30.08F
PARSONS        CLEAR     46  39  76 CALM      30.13S
WICHITA INTL   CLEAR     52  34  50 S10       30.07F
WICHITA JABRA  CLEAR     51  34  52 S9        30.07F
WINFIELD       CLEAR     51  39  63 S7        30.10S
$$

KSZ007>012-019>026-033>040-048>060-102>105-300600-
NORTHEAST KANSAS

CITY           SKY/WX    TMP DP  RH WIND       PRES   REMARKS
CONCORDIA      PTCLDY    55  36  48 S16       29.99F
EMPORIA        CLEAR     47  39  74 S9        30.07F
LAWRENCE       CLEAR     43  37  79 E7        30.09F
MANHATTAN      CLEAR     47  38  71 CALM      30.04F
OLATHE IND     CLEAR     48  35  60 SE8       30.10F
OLATHE EXE     CLEAR     46  35  65 S7        30.09F
SALINA         CLEAR     54  35  48 S9        30.02F
TOPEKA BILLARD PTCLDY    49  38  65 E5        30.07F
TOPEKA FORBES  CLEAR     49  38  65 S9        30.06F
$$



USA.gov is the U.S. government's official web portal to all federal, state and local government web resources and services.